Погода в Андрюшкине

Россия / Республика Саха (Якутия)     69°10′21″N   154°26′41″E
темп.,
°C
ветер,
м/с
пор.,
м/с
влажн.,
%
обл.,
%
осадки,
мм/ч
давл.,
гПа
погр.,
м
27 февраля, сб
сб2723:00−27ссв129990 0.1 103419
02:00−25ссв229899 0.1 103319
05:00−27ссв1210092 0.1 103219
08:00−28св1210090 0.0 103319
11:00−27ссв229994 0.1 103319
14:00−27в1198100 0.0 103219
17:00−29всв1110098 0.1 103219
20:00−30в1210050 0.0 103219
28 февраля, вс
вс2823:00−31вюв1210046 0.0 103219
02:00−32вюв1210085 0.0 103119
05:00−32вюв1210077 0.0 103019
08:00−33вюв229991 0.0 103119
11:00−32вюв229766 0.0 103019
14:00−32в239529 0.0 102935
17:00−33в339615 0.0 102919
20:00−34в34970 0.0 102927
1 марта, пн
пн123:00−34всв34980 0.0 102828
02:00−34св34980 0.0 102727
05:00−34св34980 0.0 102637
08:00−34св349811 0.0 102542
11:00−32ссв359722 0.0 102496
14:00−31ссв369733 0.0 1023132
17:00−32ссв449833 0.0 102251
20:00−33ссв349965 0.0 102238
2 марта, вт
вт223:00−33ссв349964 0.0 102228
02:00−34ссв3310068 0.0 102221
05:00−35с3310074 0.0 102319
08:00−35с2310099 0.0 102419
11:00−35ссв229996 0.0 102519
14:00−34с129646 0.0 102519
17:00−36ссв1110023 0.0 102619
20:00−38ссв111000 0.0 102819
3 марта, ср
ср323:00−38ссв111000 0.0 102919
02:00−38в001001 0.0 102919
05:00−39св111002 0.0 102919
08:00−39в1110014 0.0 102918
11:00−37вюв129511 0.0 102819
14:00−36в229537 0.0 102724
17:00−37всв349553 0.0 102530
20:00−38св449792 0.0 102359